METAR AND TAF INFORMATION
METAR FOR KPIT
KPIT 230251Z 00000KT 9SM BKN050 OVC100 21/18 A3002 RMK AO2 SLP166 T02110183 50009
KPIT 230151Z 26003KT 10SM BKN050 OVC110 21/18 A3003 RMK AO2 SLP167 T02110183
KPIT 230259Z 2303/2406 VRB03KT P6SM FEW050 BKN250
FM230800 VRB02KT 4SM BR FEW050
FM231300 23004KT P6SM SCT050 BKN250
FM240100 VRB03KT P6SM BKN250

 AIRPORT MAP

 RUNWAY INFORMATION
Runway 10C Runway length 9708 ft Runway width 150 ft
Runway elevation 1139 ft Runway displaced threshold 0 ft Runway heading 92
Runway 28C Runway length 9708 ft Runway width 150 ft
Runway elevation 1134 ft Runway displaced threshold 0 ft Runway heading 272
Runway 10L Runway length 10502 ft Runway width 150 ft
Runway elevation 1204 ft Runway displaced threshold 0 ft Runway heading 92
Runway 28R Runway length 10502 ft Runway width 150 ft
Runway elevation 1175 ft Runway displaced threshold 0 ft Runway heading 272
Runway 10R Runway length 11500 ft Runway width 200 ft
Runway elevation 1135 ft Runway displaced threshold 0 ft Runway heading 92
Runway 28L Runway length 11500 ft Runway width 200 ft
Runway elevation 1123 ft Runway displaced threshold 0 ft Runway heading 272
Runway 14 Runway length 8101 ft Runway width 150 ft
Runway elevation 1148 ft Runway displaced threshold 0 ft Runway heading 136
Runway 32 Runway length 8101 ft Runway width 150 ft
Runway elevation 1114 ft Runway displaced threshold 0 ft Runway heading 316

 AIRPORT FREQUENCIES
Type APP Name APP Frequency 120.875 MHZ
Type APP Name APP Frequency 36.08 MHZ
Type ATIS Name ATIS Frequency 127.25 MHZ
Type CLD Name CLNC DEL Frequency 126.75 MHZ
Type DEP Name DEP Frequency 118.65 MHZ
Type GND Name GND Frequency 121.9 MHZ
Type OPS Name ANG OPS Frequency 31.1 MHZ
Type POST Name PITT COMD Frequency 25.21 MHZ
Type RDO Name ALTOONA RD Frequency 112 MHZ
Type RMP Name RAMP CON Frequency 131.375 MHZ
Type TWR Name TWR Frequency 119.1 MHZ
Type UNIC Name UNICOM Frequency 122.95 MHZ

 AIRPORT NEAR NAVIGATION AIDS
Type VORTAC Name Montour Frequency 112000 KHZ

-